[[{"header":{"parameterUnit":"m.s-1","parameterCategory":2,"la1":30.2991,"la2":30.254,"lo1":-89.0895,"lo2":-89.0444,"dy":0.0017,"dx":0.0017,"nx":28,"ny":28,"refTime":"2024-05-29T21:00:00:Z","depth":"0","parameterNumber":2,"parameterNumberName":"U-component_of_CURRENTS"},"data":[0,0,0,0,0,0,0,0,0,0,0,0,0,0,0,0,0,0,0,0,0,0,0,0,0,0,0,0,0,0,0,0,0,0,0,0,0,0,0,0,0,0,0,0,0,0,0,0,0,0,0,0,0,0,0,0,0,0,-0.274,-0.2742,0,-0.2903,-0.2905,-0.2907,-0.2908,-0.2906,-0.2904,-0.2902,-0.2916,-0.2918,-0.292,0,0,0,0,0,0,0,0,0,0,0,0,0,-0.2552,-0.2555,-0.274,-0.2742,-0.2744,-0.2903,-0.2905,-0.2908,-0.2908,-0.2906,-0.2903,-0.2901,-0.2915,-0.2918,-0.2921,0,0,0,0,0,0,0,0,0,0,0,0,0,-0.2666,-0.2556,-0.2739,-0.2763,-0.2767,-0.2903,-0.2906,-0.2908,-0.2909,-0.2906,-0.2902,-0.29,-0.2914,-0.2917,-0.2921,-0.3005,0,0,-0.2932,-0.2933,0,0,0,0,0,0,0,0,-0.266,-0.2673,-0.2758,-0.2762,-0.2766,-0.2882,-0.2845,-0.2933,-0.291,-0.2855,-0.2902,-0.2898,-0.2893,-0.2898,-0.2938,-0.3006,-0.3006,-0.2932,-0.2934,-0.2935,-0.2936,0,0,0,0,0,0,0,-0.2651,-0.2667,-0.2804,-0.276,-0.2766,-0.2809,-0.2821,-0.2863,-0.2887,-0.2859,-0.286,-0.288,-0.2894,-0.2935,-0.2938,-0.3007,-0.2932,-0.2935,-0.2937,-0.2938,-0.3088,-0.3089,0,0,0,0,0,0,-0.2629,-0.2659,-0.2799,-0.2809,-0.2705,-0.2814,-0.2827,-0.2848,-0.2889,-0.2894,-0.2882,-0.2879,-0.293,-0.2934,-0.2938,-0.3008,-0.2935,-0.2939,-0.2941,-0.3086,-0.3088,-0.309,0,0,0,0,0,0,-0.2625,-0.2641,-0.2792,-0.2738,-0.276,-0.282,-0.2844,-0.2853,-0.2891,-0.2908,-0.2909,-0.2909,-0.2928,-0.2933,-0.2969,-0.3009,-0.294,-0.2943,-0.3083,-0.3086,-0.3089,-0.3169,0,0,0,0,0,0,-0.2619,-0.2638,-0.2656,-0.2736,-0.2762,-0.289,-0.2847,-0.2858,-0.2908,-0.2905,-0.2933,-0.2931,-0.2926,-0.2964,-0.2972,-0.3013,-0.2946,-0.3081,-0.3085,-0.3088,-0.3164,-0.3174,-0.3182,0,0,0,0,0,-0.2612,-0.2659,-0.2656,-0.2674,-0.2781,-0.2893,-0.2912,-0.2943,-0.2912,-0.2959,-0.295,-0.293,-0.2991,-0.2969,-0.2978,-0.302,-0.3079,-0.3084,-0.3088,-0.3159,-0.3172,-0.3182,0,0,0,0,0,0,-0.2597,-0.2666,-0.2664,-0.273,-0.2807,-0.2893,-0.2947,-0.2955,-0.2994,-0.2978,-0.2965,-0.2966,-0.301,-0.301,-0.2984,-0.3072,-0.303,-0.3036,-0.3081,-0.3093,-0.3102,-0.3093,-0.2949,0,0,0,0,0,-0.26,-0.2639,-0.2721,-0.2772,-0.2818,-0.288,-0.2928,-0.2951,-0.2994,-0.3009,-0.3018,-0.3024,-0.3044,-0.3058,-0.3081,-0.3143,-0.3092,-0.3173,-0.3182,-0.319,-0.319,-0.3156,-0.3162,-0.3104,-0.3104,-0.3104,0,0,-0.2601,-0.2649,-0.2666,-0.277,-0.2832,-0.2925,-0.2902,-0.2991,-0.3046,-0.3004,-0.307,-0.3063,-0.3066,-0.3123,-0.3143,-0.3123,-0.3176,-0.3196,-0.3203,-0.3197,-0.3161,-0.3166,-0.3171,-0.3107,-0.3106,-0.3106,0,0,-0.2652,-0.2679,-0.2741,-0.2818,-0.292,-0.2966,-0.2991,-0.3082,-0.3101,-0.3168,-0.3136,-0.3149,-0.32,-0.3206,-0.3212,-0.3293,-0.3225,-0.3301,-0.335,-0.3319,-0.3322,-0.3325,-0.3242,-0.3237,-0.3309,-0.3309,-0.3309,0,-0.2648,-0.2727,-0.2782,-0.2883,-0.2937,-0.2984,-0.3071,-0.3129,-0.3207,-0.3212,-0.3192,-0.323,-0.3239,-0.3279,-0.3306,-0.3315,-0.3261,-0.3306,-0.3329,-0.333,-0.3332,-0.3246,-0.3239,-0.3314,-0.3313,-0.3313,-0.3312,0,-0.2755,-0.2823,-0.2879,-0.2994,-0.3077,-0.3157,-0.3242,-0.3294,-0.3298,-0.3324,-0.3354,-0.3359,-0.3363,-0.3383,-0.3374,-0.34,-0.3343,-0.3339,-0.3294,-0.3342,-0.3249,-0.324,-0.332,-0.3318,-0.3317,-0.3316,0,0,-0.2696,-0.2903,-0.2912,-0.2959,-0.3125,-0.318,-0.3298,-0.3377,-0.3381,-0.3451,-0.3441,-0.3508,-0.3471,-0.3476,-0.3461,-0.3452,-0.3418,-0.3406,-0.3403,-0.3313,-0.3299,-0.3254,-0.3239,-0.3411,-0.3411,-0.3411,-0.3219,0,-0.2739,-0.2893,-0.3004,-0.312,-0.3192,-0.3285,-0.3363,-0.344,-0.3469,-0.3476,-0.349,-0.3476,-0.352,-0.3479,-0.3499,-0.3425,-0.3403,-0.3467,-0.3275,-0.3269,-0.3216,-0.3232,-0.3093,-0.2912,-0.321,-0.3209,-0.3208,0,-0.278,-0.2866,-0.2991,-0.3115,-0.3153,-0.3226,-0.3289,-0.3374,-0.3436,-0.3448,-0.348,-0.3466,-0.3479,-0.3476,-0.3427,-0.346,-0.3394,-0.3342,-0.3333,-0.3259,-0.321,-0.2919,-0.2884,-0.2862,-0.3193,-0.3195,-0.3196,0,-0.264,-0.2832,-0.2896,-0.2954,-0.3129,-0.3164,-0.3234,-0.3332,-0.3362,-0.3397,-0.3378,-0.342,-0.3366,-0.3358,-0.3321,-0.3345,-0.3221,-0.323,-0.3127,-0.3119,-0.2947,-0.2927,-0.286,-0.3175,-0.3176,-0.3176,-0.3177,0,-0.2606,-0.2648,-0.2816,-0.2845,-0.2875,-0.3039,-0.3059,-0.3141,-0.3216,-0.3216,-0.332,-0.3291,-0.333,-0.329,-0.3279,-0.3181,-0.3192,-0.3123,-0.3078,-0.297,-0.2956,-0.2887,-0.2926,-0.3169,-0.3171,-0.3172,-0.3173,0,-0.2453,-0.2579,-0.2638,-0.2783,-0.2817,-0.2824,-0.2957,-0.2958,-0.306,-0.3057,-0.3055,-0.3141,-0.31,-0.3134,-0.3062,-0.3072,-0.2946,-0.2963,-0.2819,-0.2764,-0.267,-0.2718,-0.259,-0.252,-0.2797,-0.2795,-0.2793,0,-0.2398,-0.2413,-0.2534,-0.2543,-0.2602,-0.2653,-0.2679,-0.2839,-0.2863,-0.2957,-0.2923,-0.2915,-0.2908,-0.2835,-0.282,-0.2767,-0.2805,-0.2614,-0.267,-0.2642,-0.2661,-0.2695,-0.2649,-0.244,-0.2435,-0.2432,-0.2429,0,-0.2259,-0.229,-0.2329,-0.2356,-0.2378,-0.2422,-0.2485,-0.2496,-0.2658,-0.267,-0.2689,-0.269,-0.2656,-0.2575,-0.2547,-0.2513,-0.2556,-0.2538,-0.2537,-0.241,-0.2409,-0.2325,-0.2568,-0.2396,-0.2399,-0.2402,-0.2403,-0.2405,-0.2117,-0.2102,-0.2149,-0.2156,-0.218,-0.2192,-0.2173,-0.2256,-0.2285,-0.2315,-0.2417,-0.2401,-0.2395,-0.2345,-0.2312,-0.2209,-0.2294,-0.2161,-0.222,-0.2255,-0.2214,-0.2387,-0.2175,-0.2177,-0.2178,-0.218,-0.2181,0,-0.1959,-0.1964,-0.1955,-0.1976,-0.1932,-0.2011,-0.2035,-0.2002,-0.1982,-0.206,-0.2075,-0.211,-0.2038,-0.2068,-0.2006,-0.1928,-0.1883,-0.1894,-0.1896,-0.1863,-0.1999,-0.2013,-0.1723,-0.1723,-0.1723,-0.1723,-0.1723,-0.1723,-0.1879,-0.1826,-0.1835,-0.1736,-0.1732,-0.1648,-0.1628,-0.1601,-0.1636,-0.1638,-0.1698,-0.1812,-0.1862,-0.2012,-0.1907,-0.1811,-0.1781,-0.1703,-0.1769,-0.1874,-0.1903,-0.1932,-0.1953,-0.1655,-0.1655,-0.1524,-0.1523,-0.1523]},{"header":{"parameterUnit":"m.s-1","parameterCategory":2,"la1":30.2991,"la2":30.254,"lo1":-89.0895,"lo2":-89.0444,"dy":0.0017,"dx":0.0017,"nx":28,"ny":28,"refTime":"2024-05-29T21:00:00:Z","depth":"0","parameterNumber":3,"parameterNumberName":"V-component_of_CURRENTS"},"data":[0,0,0,0,0,0,0,0,0,0,0,0,0,0,0,0,0,0,0,0,0,0,0,0,0,0,0,0,0,0,0,0,0,0,0,0,0,0,0,0,0,0,0,0,0,0,0,0,0,0,0,0,0,0,0,0,0,0,-0.0177,-0.0177,0,-0.0124,-0.0123,-0.0122,-0.0063,-0.0062,-0.0062,-0.0062,0.013,0.0134,0.0139,0,0,0,0,0,0,0,0,0,0,0,0,0,-0.0153,-0.0154,-0.0177,-0.0177,-0.0177,-0.0124,-0.0123,-0.0121,-0.0063,-0.0062,-0.0062,-0.0061,0.0128,0.0134,0.014,0,0,0,0,0,0,0,0,0,0,0,0,0,-0.0133,-0.0154,-0.0177,-0.0145,-0.0142,-0.0124,-0.0123,-0.0121,-0.0063,-0.0062,-0.0062,-0.0061,0.0126,0.0133,0.014,0.0174,0,0,0.0162,0.0165,0,0,0,0,0,0,0,0,-0.0134,-0.0133,-0.015,-0.0147,-0.0144,-0.0104,-0.0044,-0.0017,-0.0063,-0.0087,-0.0062,-0.0061,0.006,0.0073,0.0088,0.0183,0.0191,0.0163,0.0167,0.017,0.0172,0,0,0,0,0,0,0,-0.0136,-0.0135,-0.015,-0.015,-0.0146,-0.0108,-0.0105,-0.0039,-0.001,-0.0085,-0.0082,-0.0085,0.0064,0.0081,0.0093,0.0194,0.0163,0.0169,0.0173,0.0176,0.0357,0.0357,0,0,0,0,0,0,-0.0158,-0.0137,-0.0152,-0.0149,-0.0144,-0.011,-0.0106,-0.0113,-0.0014,-0.0001,-0.0085,-0.0082,0.0068,0.0084,0.01,0.0155,0.017,0.0177,0.0181,0.0356,0.0357,0.0357,0,0,0,0,0,0,-0.0158,-0.016,-0.0154,-0.0146,-0.0143,-0.0112,-0.012,-0.0112,-0.0101,-0.0017,0.0,-0.0083,0.0069,0.009,0.0159,0.0162,0.018,0.0187,0.0356,0.0357,0.0357,0.0259,0,0,0,0,0,0,-0.0158,-0.0161,-0.0166,-0.0148,-0.0145,-0.0156,-0.0121,-0.0112,-0.0106,-0.0101,-0.0009,0.001,0.0071,0.0148,0.0166,0.0173,0.0192,0.0355,0.0356,0.0357,0.0262,0.0256,0.0252,0,0,0,0,0,-0.0157,-0.0182,-0.0166,-0.0168,-0.0155,-0.0158,-0.0152,-0.0123,-0.0107,-0.0109,-0.0038,0.0006,0.0168,0.0154,0.0176,0.0184,0.0355,0.0356,0.0357,0.0264,0.0257,0.0252,0,0,0,0,0,0,-0.0184,-0.0179,-0.0161,-0.0184,-0.0174,-0.015,-0.0159,-0.0134,-0.0082,-0.0074,0.0014,0.0037,0.0097,0.0156,0.0139,0.024,0.0269,0.0274,0.0191,0.0185,0.0181,0.0154,0.0198,0,0,0,0,0,-0.0191,-0.0202,-0.019,-0.0208,-0.0212,-0.0184,-0.0179,-0.0161,-0.0121,-0.0099,-0.0031,0.0047,0.0119,0.0162,0.0229,0.0286,0.0327,0.0307,0.0302,0.0297,0.0291,0.0346,0.0344,0.0361,0.0361,0.0361,0,0,-0.0209,-0.0206,-0.0212,-0.0212,-0.0206,-0.0216,-0.0179,-0.0189,-0.0176,-0.0083,-0.0041,0.0029,0.0129,0.0189,0.0222,0.024,0.0314,0.0299,0.0294,0.0291,0.0347,0.0345,0.0343,0.0362,0.0362,0.0362,0,0,-0.0267,-0.025,-0.0285,-0.0277,-0.0276,-0.025,-0.0259,-0.0235,-0.0204,-0.0157,-0.0085,-0.0015,0.0089,0.0162,0.0213,0.0225,0.028,0.0247,0.0209,0.0261,0.0259,0.0258,0.0299,0.0303,0.0251,0.0251,0.025,0,-0.029,-0.0324,-0.0295,-0.0324,-0.0326,-0.0273,-0.0307,-0.0264,-0.021,-0.0182,-0.0156,-0.0002,0.0078,0.0164,0.0169,0.0213,0.0243,0.0217,0.0251,0.0251,0.0252,0.0294,0.03,0.0246,0.0247,0.0247,0.0247,0,-0.0372,-0.039,-0.0415,-0.0421,-0.0414,-0.0435,-0.0384,-0.0352,-0.0304,-0.0255,-0.0173,-0.0064,0.0027,0.0067,0.0126,0.0178,0.0197,0.0228,0.0255,0.0244,0.029,0.0297,0.0239,0.0241,0.0242,0.0244,0,0,-0.0451,-0.0472,-0.0476,-0.0492,-0.0467,-0.0474,-0.0442,-0.0403,-0.0378,-0.0295,-0.0258,-0.0125,-0.007,-0.0008,0.0077,0.0132,0.0167,0.0174,0.0179,0.0194,0.0268,0.0323,0.0337,0.0195,0.0196,0.0196,0.0293,0,-0.0527,-0.0599,-0.0578,-0.0621,-0.0655,-0.0583,-0.0556,-0.0497,-0.0427,-0.0367,-0.0243,-0.0173,-0.0094,-0.0053,0.0014,0.0135,0.0182,0.0137,0.0294,0.0299,0.0334,0.0346,0.0386,0.048,0.0301,0.0302,0.0303,0,-0.0616,-0.0647,-0.0718,-0.0717,-0.0725,-0.0723,-0.0669,-0.0638,-0.0525,-0.047,-0.0377,-0.028,-0.0162,-0.0109,0.0077,0.004,0.0137,0.0225,0.0231,0.0322,0.0369,0.0468,0.05,0.0669,0.0314,0.0313,0.0312,0,-0.0693,-0.0738,-0.0794,-0.0797,-0.0786,-0.0784,-0.0761,-0.0672,-0.0641,-0.0536,-0.0501,-0.0353,-0.0272,-0.0132,0.0068,0.0064,0.0259,0.0282,0.042,0.0425,0.0512,0.0524,0.0712,0.0386,0.0386,0.0386,0.0385,0,-0.0782,-0.0822,-0.0832,-0.0862,-0.09,-0.0861,-0.0869,-0.0814,-0.0737,-0.0703,-0.0563,-0.0499,-0.0278,-0.0126,0.0036,0.0261,0.024,0.0416,0.0459,0.048,0.0487,0.0682,0.075,0.0389,0.0388,0.0388,0.0387,0,-0.0862,-0.0874,-0.0936,-0.0945,-0.0945,-0.0969,-0.095,-0.094,-0.0861,-0.0813,-0.0784,-0.0602,-0.0399,-0.017,0.0075,0.0228,0.0542,0.0505,0.0513,0.0555,0.0838,0.0898,0.1113,0.1219,0.067,0.0672,0.0673,0,-0.091,-0.0954,-0.1001,-0.1032,-0.104,-0.1062,-0.1067,-0.1008,-0.099,-0.0867,-0.0843,-0.0647,-0.0476,-0.0089,0.0208,0.0507,0.0633,0.0703,0.0714,0.0868,0.0967,0.0994,0.1068,0.0788,0.079,0.0792,0.0794,0,-0.0986,-0.1002,-0.1047,-0.1117,-0.1148,-0.1183,-0.1182,-0.1186,-0.1102,-0.1034,-0.0908,-0.0765,-0.0376,0.0005,0.0398,0.0571,0.0838,0.0754,0.0923,0.1086,0.112,0.1236,0.0697,0.0812,0.081,0.0809,0.0808,0.0807,-0.1023,-0.1075,-0.1129,-0.1192,-0.1237,-0.1279,-0.1297,-0.1271,-0.1234,-0.1102,-0.0963,-0.0704,-0.0157,0.0419,0.0632,0.1068,0.1009,0.1186,0.1247,0.126,0.1368,0.0863,0.1021,0.1021,0.102,0.102,0.1019,0,-0.1058,-0.1117,-0.119,-0.1269,-0.133,-0.1329,-0.1348,-0.133,-0.1279,-0.1112,-0.0943,-0.0348,0.0205,0.0704,0.1332,0.1558,0.1601,0.1647,0.1703,0.1758,0.133,0.1343,0.1567,0.1567,0.1567,0.1567,0.1566,0.1566,-0.1079,-0.1159,-0.1206,-0.1318,-0.137,-0.1413,-0.142,-0.1372,-0.1251,-0.0948,-0.062,-0.0346,0.0375,0.1397,0.197,0.201,0.2201,0.2157,0.2266,0.1977,0.1938,0.1901,0.1931,0.2276,0.2277,0.2674,0.2679,0.2682]}],[{"header":{"parameterUnit":"m.s-1","parameterCategory":2,"la1":30.2991,"la2":30.254,"lo1":-89.0895,"lo2":-89.0444,"dy":0.0017,"dx":0.0017,"nx":28,"ny":28,"refTime":"2024-05-29T21:00:00:Z","depth":"2","parameterNumber":2,"parameterNumberName":"U-component_of_CURRENTS"},"data":[0,0,0,0,0,0,0,0,0,0,0,0,0,0,0,0,0,0,0,0,0,0,0,0,0,0,0,0,0,0,0,0,0,0,0,0,0,0,0,0,0,0,0,0,0,0,0,0,0,0,0,0,0,0,0,0,0,0,-0.2354,-0.2355,0,-0.2416,-0.2417,-0.2417,-0.2416,-0.2415,-0.2415,-0.2414,-0.2519,-0.2522,-0.2525,0,0,0,0,0,0,0,0,0,0,0,0,0,-0.2203,-0.2205,-0.2354,-0.2355,-0.2357,-0.2416,-0.2417,-0.2417,-0.2416,-0.2415,-0.2415,-0.2414,-0.2517,-0.2521,-0.2525,0,0,0,0,0,0,0,0,0,0,0,0,0,-0.2262,-0.2206,-0.2354,-0.2367,-0.2369,-0.2416,-0.2417,-0.2417,-0.2416,-0.2415,-0.2415,-0.2414,-0.2516,-0.2521,-0.2525,-0.2565,0,0,-0.254,-0.2542,0,0,0,0,0,0,0,0,-0.2259,-0.2267,-0.2364,-0.2366,-0.2369,-0.2412,-0.2402,-0.2471,-0.2416,-0.2392,-0.2414,-0.2414,-0.2491,-0.2498,-0.2502,-0.257,-0.2574,-0.254,-0.2543,-0.2545,-0.2546,0,0,0,0,0,0,0,-0.2255,-0.2264,-0.2373,-0.2365,-0.2369,-0.236,-0.2367,-0.2414,-0.244,-0.2394,-0.2396,-0.2411,-0.2492,-0.2498,-0.2505,-0.2576,-0.254,-0.2544,-0.2547,-0.2549,-0.2668,-0.2668,0,0,0,0,0,0,-0.2261,-0.2261,-0.2371,-0.2376,-0.2318,-0.2363,-0.2371,-0.2395,-0.2439,-0.2447,-0.2412,-0.2411,-0.249,-0.2499,-0.2509,-0.2605,-0.2545,-0.2549,-0.2552,-0.2667,-0.2668,-0.2668,0,0,0,0,0,0,-0.2257,-0.227,-0.2369,-0.2323,-0.2336,-0.2367,-0.2393,-0.2396,-0.2412,-0.2453,-0.246,-0.2426,-0.249,-0.2502,-0.2567,-0.2607,-0.2551,-0.2555,-0.2667,-0.2667,-0.2668,-0.2769,0,0,0,0,0,0,-0.2253,-0.2269,-0.2288,-0.2324,-0.2339,-0.2416,-0.2394,-0.2398,-0.2425,-0.2424,-0.2468,-0.2476,-0.249,-0.256,-0.2571,-0.2613,-0.2559,-0.2666,-0.2667,-0.2668,-0.2765,-0.2773,-0.2779,0,0,0,0,0,-0.2247,-0.2283,-0.2289,-0.2303,-0.2365,-0.2418,-0.2425,-0.244,-0.2426,-0.2448,-0.2473,-0.2475,-0.257,-0.2565,-0.2578,-0.2622,-0.2666,-0.2667,-0.2668,-0.2762,-0.2771,-0.2779,0,0,0,0,0,0,-0.2232,-0.2288,-0.2295,-0.2347,-0.2386,-0.242,-0.2448,-0.2449,-0.2482,-0.2487,-0.2502,-0.2514,-0.2572,-0.2579,-0.2572,-0.2649,-0.261,-0.2613,-0.2676,-0.2686,-0.2693,-0.2686,-0.2563,0,0,0,0,0,-0.2238,-0.2274,-0.2325,-0.2366,-0.2392,-0.2418,-0.244,-0.2455,-0.249,-0.2503,-0.253,-0.2554,-0.2584,-0.2622,-0.2641,-0.2713,-0.267,-0.2736,-0.2744,-0.275,-0.2749,-0.2711,-0.2715,-0.2671,-0.2671,-0.2671,0,0,-0.2239,-0.2278,-0.2297,-0.2364,-0.2395,-0.2452,-0.2429,-0.2481,-0.2529,-0.2514,-0.2584,-0.2583,-0.26,-0.2664,-0.2691,-0.2685,-0.274,-0.2751,-0.2757,-0.2752,-0.2712,-0.2716,-0.272,-0.2671,-0.2671,-0.2671,0,0,-0.2271,-0.2303,-0.2349,-0.2389,-0.2454,-0.2483,-0.2501,-0.2549,-0.2573,-0.2643,-0.2625,-0.2655,-0.2715,-0.2736,-0.2753,-0.2813,-0.2764,-0.2806,-0.287,-0.2834,-0.2838,-0.284,-0.2796,-0.2793,-0.2829,-0.283,-0.283,0,-0.2269,-0.2332,-0.2369,-0.243,-0.2465,-0.2501,-0.2556,-0.2604,-0.2662,-0.2675,-0.268,-0.2718,-0.2752,-0.2804,-0.283,-0.2836,-0.2787,-0.2847,-0.2845,-0.2847,-0.2847,-0.2801,-0.2797,-0.2835,-0.2834,-0.2833,-0.2833,0,-0.2337,-0.2387,-0.2422,-0.2508,-0.2557,-0.2609,-0.2682,-0.2724,-0.2752,-0.2776,-0.2818,-0.2849,-0.2862,-0.2883,-0.2895,-0.2916,-0.2868,-0.2846,-0.2829,-0.2858,-0.2807,-0.2801,-0.2842,-0.284,-0.2838,-0.2837,0,0,-0.2304,-0.2441,-0.2446,-0.2481,-0.2594,-0.2629,-0.2731,-0.2799,-0.2822,-0.2888,-0.2902,-0.2981,-0.2958,-0.2972,-0.2972,-0.2971,-0.2965,-0.2925,-0.292,-0.289,-0.2862,-0.2807,-0.2795,-0.293,-0.2929,-0.2929,-0.2826,0,-0.2331,-0.2436,-0.2508,-0.259,-0.264,-0.2707,-0.2782,-0.2849,-0.2896,-0.2924,-0.2961,-0.2975,-0.3008,-0.2996,-0.3014,-0.2956,-0.2952,-0.2993,-0.2828,-0.2824,-0.278,-0.2788,-0.2588,-0.2476,-0.282,-0.2819,-0.2818,0,-0.2351,-0.2417,-0.2505,-0.2598,-0.2624,-0.2681,-0.2752,-0.2827,-0.2897,-0.2926,-0.2962,-0.2968,-0.3005,-0.3002,-0.2967,-0.2982,-0.2937,-0.2899,-0.2893,-0.28,-0.2758,-0.2499,-0.2452,-0.2808,-0.2808,-0.2809,-0.281,0,-0.2263,-0.2395,-0.2452,-0.2488,-0.2618,-0.2649,-0.2713,-0.2801,-0.284,-0.2901,-0.2904,-0.295,-0.2938,-0.2917,-0.2903,-0.291,-0.2825,-0.2818,-0.2727,-0.2721,-0.2498,-0.2474,-0.2771,-0.2771,-0.2772,-0.2772,-0.2772,0,-0.2235,-0.2268,-0.2404,-0.2424,-0.2464,-0.258,-0.2614,-0.2684,-0.2761,-0.2776,-0.2877,-0.2873,-0.2908,-0.2887,-0.2874,-0.279,-0.2805,-0.2728,-0.2691,-0.2528,-0.2509,-0.2754,-0.2753,-0.2768,-0.2769,-0.277,-0.277,0,-0.2115,-0.2217,-0.2265,-0.2387,-0.242,-0.2435,-0.2544,-0.2558,-0.2659,-0.2676,-0.2688,-0.2781,-0.2755,-0.2786,-0.2729,-0.2721,-0.2661,-0.2623,-0.2438,-0.2382,-0.2584,-0.2589,-0.2493,-0.249,-0.2487,-0.2485,-0.2484,0,-0.2067,-0.2082,-0.2191,-0.2201,-0.2249,-0.2303,-0.2329,-0.2471,-0.2494,-0.2604,-0.2585,-0.2609,-0.2605,-0.255,-0.2515,-0.2463,-0.2561,-0.2258,-0.2258,-0.2582,-0.2555,-0.2565,-0.2573,-0.1992,-0.1987,-0.1982,-0.1979,0,-0.1944,-0.1978,-0.2012,-0.2047,-0.2073,-0.2112,-0.2171,-0.2188,-0.2332,-0.2363,-0.2397,-0.241,-0.2387,-0.2262,-0.223,-0.2181,-0.2263,-0.2164,-0.2508,-0.212,-0.2108,-0.2084,-0.2108,-0.1938,-0.1942,-0.1945,-0.1947,-0.1949,-0.1821,-0.1811,-0.1859,-0.1872,-0.1901,-0.1916,-0.19,-0.1976,-0.2009,-0.2048,-0.2151,-0.212,-0.2122,-0.1974,-0.1893,-0.1844,-0.1996,-0.1921,-0.1935,-0.1954,-0.194,-0.1928,-0.172,-0.1722,-0.1724,-0.1727,-0.1728,0,-0.168,-0.169,-0.1687,-0.1712,-0.1679,-0.1756,-0.1779,-0.1748,-0.1737,-0.1798,-0.182,-0.1674,-0.1602,-0.1625,-0.1482,-0.1471,-0.1455,-0.1418,-0.139,-0.143,-0.1466,-0.1429,-0.1072,-0.107,-0.1068,-0.1067,0,0,-0.1607,-0.1565,-0.1574,-0.1494,-0.1498,-0.143,-0.1414,-0.139,-0.1405,-0.1371,-0.1367,-0.1502,-0.1562,-0.1309,-0.1253,-0.1138,-0.1269,-0.1083,-0.1605,-0.1609,-0.1642,-0.1748,-0.1735,0,0,0,0,0]},{"header":{"parameterUnit":"m.s-1","parameterCategory":2,"la1":30.2991,"la2":30.254,"lo1":-89.0895,"lo2":-89.0444,"dy":0.0017,"dx":0.0017,"nx":28,"ny":28,"refTime":"2024-05-29T21:00:00:Z","depth":"2","parameterNumber":3,"parameterNumberName":"V-component_of_CURRENTS"},"data":[0,0,0,0,0,0,0,0,0,0,0,0,0,0,0,0,0,0,0,0,0,0,0,0,0,0,0,0,0,0,0,0,0,0,0,0,0,0,0,0,0,0,0,0,0,0,0,0,0,0,0,0,0,0,0,0,0,0,-0.0122,-0.0122,0,-0.0085,-0.0084,-0.0083,-0.0037,-0.0037,-0.0036,-0.0036,0.014,0.0145,0.0149,0,0,0,0,0,0,0,0,0,0,0,0,0,-0.0093,-0.0094,-0.0122,-0.0122,-0.0122,-0.0085,-0.0084,-0.0083,-0.0037,-0.0037,-0.0036,-0.0036,0.0139,0.0144,0.0149,0,0,0,0,0,0,0,0,0,0,0,0,0,-0.0082,-0.0094,-0.0122,-0.0098,-0.0096,-0.0085,-0.0084,-0.0083,-0.0037,-0.0037,-0.0036,-0.0036,0.0137,0.0144,0.015,0.0181,0,0,0.017,0.0173,0,0,0,0,0,0,0,0,-0.0082,-0.0082,-0.0101,-0.0099,-0.0097,-0.0069,-0.0009,0.0011,-0.0037,-0.0055,-0.0036,-0.0036,0.008,0.0091,0.0102,0.019,0.0197,0.0171,0.0175,0.0178,0.018,0,0,0,0,0,0,0,-0.0083,-0.0083,-0.0102,-0.0101,-0.0099,-0.0069,-0.0066,-0.0005,0.0016,-0.0053,-0.0051,-0.0054,0.0083,0.0095,0.0107,0.02,0.0171,0.0177,0.0181,0.0183,0.0331,0.0331,0,0,0,0,0,0,-0.0101,-0.0084,-0.0104,-0.0102,-0.0094,-0.007,-0.0067,-0.0075,0.0012,0.0023,-0.0054,-0.0052,0.0084,0.0099,0.0113,0.016,0.0178,0.0184,0.0188,0.0331,0.0331,0.0331,0,0,0,0,0,0,-0.0101,-0.0103,-0.0105,-0.0095,-0.0094,-0.0072,-0.008,-0.0074,-0.0065,0.0009,0.0024,-0.0052,0.0085,0.0104,0.0161,0.0167,0.0187,0.0193,0.0331,0.0331,0.0331,0.0252,0,0,0,0,0,0,-0.01,-0.0103,-0.0108,-0.0097,-0.0096,-0.0109,-0.0081,-0.0074,-0.007,-0.0066,0.0016,0.0033,0.0086,0.0151,0.0168,0.0177,0.0198,0.0331,0.0331,0.0331,0.0254,0.0249,0.0244,0,0,0,0,0,-0.0099,-0.0121,-0.0108,-0.011,-0.0105,-0.0111,-0.0107,-0.0085,-0.0071,-0.0073,-0.0016,0.003,0.0163,0.0156,0.0176,0.0187,0.0331,0.0331,0.0331,0.0257,0.025,0.0245,0,0,0,0,0,0,-0.012,-0.0118,-0.0104,-0.0126,-0.012,-0.0105,-0.0113,-0.0093,-0.0052,-0.0045,0.0032,0.0053,0.0101,0.0155,0.0145,0.0229,0.0254,0.0258,0.0191,0.0185,0.018,0.0161,0.0204,0,0,0,0,0,-0.0126,-0.0135,-0.0129,-0.0146,-0.015,-0.0129,-0.0127,-0.0113,-0.0082,-0.0065,-0.0007,0.0058,0.0117,0.0157,0.021,0.0263,0.0308,0.0282,0.0277,0.0273,0.027,0.0336,0.0337,0.0331,0.0331,0.0331,0,0,-0.0141,-0.014,-0.0147,-0.0149,-0.0146,-0.0159,-0.0126,-0.0137,-0.0129,-0.0049,-0.0018,0.0039,0.0123,0.0172,0.0201,0.0221,0.0296,0.0272,0.0268,0.0268,0.0336,0.0337,0.0337,0.0331,0.0331,0.0331,0,0,-0.0193,-0.0178,-0.021,-0.0204,-0.0205,-0.0187,-0.0194,-0.0178,-0.0154,-0.0119,-0.006,-0.0001,0.0084,0.0147,0.0192,0.0195,0.0258,0.0211,0.0185,0.0248,0.0249,0.0251,0.0296,0.0302,0.0219,0.0219,0.0219,0,-0.0213,-0.0244,-0.022,-0.0246,-0.0248,-0.0206,-0.0237,-0.0204,-0.0164,-0.0139,-0.012,0.0007,0.0075,0.0152,0.015,0.0185,0.0221,0.0199,0.0241,0.0244,0.0246,0.0293,0.0301,0.0215,0.0216,0.0216,0.0217,0,-0.0288,-0.0302,-0.0325,-0.0334,-0.0328,-0.0349,-0.0309,-0.0285,-0.0246,-0.0206,-0.0136,-0.0045,0.0033,0.0066,0.0112,0.017,0.0187,0.0216,0.0252,0.0242,0.0292,0.0301,0.021,0.0211,0.0212,0.0213,0,0,-0.036,-0.0377,-0.0381,-0.0395,-0.0375,-0.0384,-0.036,-0.0329,-0.0307,-0.0239,-0.0202,-0.0096,-0.0045,0.0008,0.0081,0.0144,0.0193,0.0181,0.0186,0.0217,0.0317,0.0349,0.0363,0.0225,0.0227,0.0228,0.0339,0,-0.0429,-0.0494,-0.0473,-0.0513,-0.0544,-0.0482,-0.0461,-0.0412,-0.0353,-0.0299,-0.0187,-0.0127,-0.0064,-0.0027,0.0045,0.0159,0.0216,0.0159,0.033,0.0335,0.0359,0.0375,0.0332,0.0429,0.0348,0.035,0.0351,0,-0.0512,-0.0538,-0.0602,-0.0598,-0.0605,-0.0607,-0.056,-0.0536,-0.0433,-0.0384,-0.0296,-0.021,-0.0095,-0.0052,0.0137,0.0095,0.0191,0.0277,0.0284,0.035,0.0386,0.0431,0.045,0.0368,0.0367,0.0365,0.0364,0,-0.0586,-0.0623,-0.0674,-0.0676,-0.0666,-0.0664,-0.0645,-0.0564,-0.0537,-0.0438,-0.0403,-0.0258,-0.0179,-0.0038,0.0146,0.0139,0.0345,0.0364,0.0482,0.0485,0.0502,0.0504,0.0481,0.048,0.048,0.048,0.048,0,-0.0668,-0.0704,-0.0712,-0.074,-0.0775,-0.0737,-0.0743,-0.0694,-0.0619,-0.0585,-0.0456,-0.039,-0.0174,-0.0024,0.0128,0.0341,0.0338,0.0482,0.0523,0.0472,0.047,0.0462,0.0458,0.0484,0.0483,0.0482,0.0482,0,-0.0744,-0.0754,-0.0812,-0.0818,-0.0819,-0.0843,-0.0822,-0.0812,-0.0734,-0.0684,-0.0656,-0.0477,-0.0278,-0.006,0.0186,0.0324,0.0518,0.0587,0.0505,0.0535,0.0614,0.0605,0.073,0.0732,0.0734,0.0736,0.0737,0,-0.0789,-0.0831,-0.0876,-0.0906,-0.0913,-0.0934,-0.0938,-0.0879,-0.0858,-0.0731,-0.0704,-0.0511,-0.0347,0.0026,0.029,0.0567,0.0568,0.068,0.0669,0.0616,0.0643,0.0631,0.062,0.0654,0.0655,0.0655,0.0655,0,-0.086,-0.0878,-0.092,-0.0989,-0.1018,-0.1048,-0.1044,-0.1045,-0.0958,-0.0889,-0.0758,-0.062,-0.026,0.0054,0.041,0.0558,0.0635,0.0698,0.0685,0.0595,0.0554,0.0577,0.0567,0.0659,0.0659,0.0659,0.0659,0.0658,-0.0896,-0.0945,-0.0999,-0.1059,-0.1102,-0.1138,-0.1154,-0.112,-0.1078,-0.0947,-0.0811,-0.0577,-0.0266,0.024,0.0492,0.071,0.0708,0.0766,0.0761,0.0756,0.0725,0.0689,0.0814,0.0814,0.0815,0.0815,0.0815,0,-0.093,-0.0986,-0.1056,-0.1131,-0.1188,-0.1189,-0.12,-0.118,-0.1123,-0.0966,-0.0805,-0.0467,-0.0097,0.0212,0.0575,0.0803,0.0771,0.082,0.0743,0.0737,0.0733,0.0698,0.0781,0.0782,0.0783,0.0783,0,0,-0.095,-0.1026,-0.1069,-0.1174,-0.1226,-0.1267,-0.1272,-0.1219,-0.1108,-0.095,-0.0766,-0.0494,-0.0096,0.0157,0.0437,0.0624,0.0613,0.0625,0.0627,0.0497,0.049,0.0678,0.0616,0,0,0,0,0]}],[{"header":{"parameterUnit":"m.s-1","parameterCategory":2,"la1":30.2991,"la2":30.254,"lo1":-89.0895,"lo2":-89.0444,"dy":0.0017,"dx":0.0017,"nx":28,"ny":28,"refTime":"2024-05-29T21:00:00:Z","depth":"4","parameterNumber":2,"parameterNumberName":"U-component_of_CURRENTS"},"data":[0,0,0,0,0,0,0,0,0,0,0,0,0,0,0,0,0,0,0,0,0,0,0,0,0,0,0,0,0,0,0,0,0,0,0,0,0,0,0,0,0,0,0,0,0,0,0,0,0,0,0,0,0,0,0,0,0,0,-0.1625,-0.1626,0,-0.1648,-0.1647,-0.1647,-0.1688,-0.169,-0.1692,-0.1693,-0.1651,-0.1648,-0.1645,0,0,0,0,0,0,0,0,0,0,0,0,0,-0.1475,-0.1478,-0.1625,-0.1626,-0.1627,-0.1648,-0.1647,-0.1647,-0.1688,-0.169,-0.1692,-0.1694,-0.1651,-0.1648,-0.1645,0,0,0,0,0,0,0,0,0,0,0,0,0,-0.1515,-0.1479,-0.1625,-0.1657,-0.1661,-0.1648,-0.1647,-0.1646,-0.1688,-0.169,-0.1693,-0.1695,-0.1652,-0.1649,-0.1645,-0.1572,0,0,-0.1633,-0.1631,0,0,0,0,0,0,0,0,-0.1513,-0.1519,-0.1651,-0.1655,-0.1659,-0.1675,-0.1579,-0.1621,-0.1687,-0.1668,-0.1693,-0.1696,-0.1657,-0.1653,-0.164,-0.157,-0.1568,-0.1632,-0.163,-0.1628,-0.1627,0,0,0,0,0,0,0,-0.151,-0.1518,-0.1625,-0.1652,-0.1657,-0.1622,-0.163,-0.1586,-0.164,-0.167,-0.1675,-0.1691,-0.1658,-0.1643,-0.1639,-0.1567,-0.1632,-0.1629,-0.1626,-0.1625,-0.1602,-0.1603,0,0,0,0,0,0,-0.1531,-0.1516,-0.1624,-0.1627,-0.16,-0.1624,-0.1633,-0.166,-0.1643,-0.1645,-0.1689,-0.1693,-0.1649,-0.1644,-0.1638,-0.1686,-0.1628,-0.1624,-0.1622,-0.16,-0.1602,-0.1604,0,0,0,0,0,0,-0.1527,-0.154,-0.1624,-0.1578,-0.1587,-0.1626,-0.1655,-0.166,-0.1686,-0.1659,-0.166,-0.1716,-0.1651,-0.1643,-0.1639,-0.168,-0.1623,-0.1619,-0.1598,-0.1601,-0.1603,-0.1695,0,0,0,0,0,0,-0.1523,-0.1539,-0.157,-0.158,-0.1591,-0.1639,-0.1654,-0.1659,-0.1694,-0.17,-0.1681,-0.1678,-0.1652,-0.1645,-0.1635,-0.1673,-0.1616,-0.1596,-0.1599,-0.1602,-0.1689,-0.17,-0.1709,0,0,0,0,0,-0.1517,-0.1549,-0.1571,-0.1585,-0.1632,-0.164,-0.1641,-0.1669,-0.1693,-0.1701,-0.1702,-0.1681,-0.1661,-0.1642,-0.163,-0.1668,-0.1594,-0.1598,-0.1602,-0.1685,-0.1698,-0.1709,0,0,0,0,0,0,-0.1501,-0.1557,-0.1582,-0.1632,-0.1648,-0.1651,-0.1668,-0.1684,-0.1688,-0.1701,-0.168,-0.1675,-0.1692,-0.1663,-0.1644,-0.1675,-0.1632,-0.1634,-0.1699,-0.1711,-0.1721,-0.1729,-0.1613,0,0,0,0,0,-0.1513,-0.1557,-0.1588,-0.163,-0.1641,-0.1658,-0.1671,-0.1686,-0.1691,-0.1698,-0.1692,-0.1689,-0.1688,-0.1689,-0.167,-0.1667,-0.1653,-0.1692,-0.1702,-0.1711,-0.1712,-0.1733,-0.1745,-0.1617,-0.1617,-0.1617,0,0,-0.152,-0.1558,-0.1585,-0.1631,-0.1645,-0.1662,-0.167,-0.1694,-0.172,-0.1687,-0.1719,-0.1712,-0.1695,-0.1709,-0.1715,-0.1695,-0.1742,-0.1716,-0.1723,-0.1719,-0.1738,-0.175,-0.1761,-0.162,-0.1619,-0.1619,0,0,-0.1541,-0.1588,-0.1625,-0.1639,-0.1675,-0.1679,-0.1697,-0.1713,-0.1738,-0.1754,-0.1757,-0.1779,-0.176,-0.1771,-0.1771,-0.1819,-0.179,-0.1824,-0.188,-0.1902,-0.1912,-0.1921,-0.1927,-0.1936,-0.1833,-0.1834,-0.1834,0,-0.1549,-0.1604,-0.1631,-0.1659,-0.168,-0.1695,-0.1719,-0.1735,-0.1754,-0.1775,-0.1781,-0.1805,-0.1794,-0.183,-0.1863,-0.1842,-0.1842,-0.1836,-0.1915,-0.1923,-0.1931,-0.1934,-0.1943,-0.1838,-0.1838,-0.1837,-0.1837,0,-0.1583,-0.1632,-0.1648,-0.1699,-0.1716,-0.1735,-0.1763,-0.1788,-0.182,-0.1838,-0.1887,-0.1882,-0.1905,-0.1917,-0.1904,-0.1964,-0.1943,-0.1922,-0.1884,-0.1949,-0.1949,-0.1956,-0.1845,-0.1844,-0.1842,-0.1841,0,0,-0.1572,-0.1661,-0.1667,-0.1701,-0.1739,-0.1753,-0.1799,-0.1838,-0.1887,-0.191,-0.1975,-0.1994,-0.2007,-0.201,-0.201,-0.2035,-0.2098,-0.2012,-0.2011,-0.2016,-0.2142,-0.1985,-0.1977,-0.2095,-0.2097,-0.2098,-0.2122,0,-0.1587,-0.1658,-0.1696,-0.1748,-0.1774,-0.1806,-0.1853,-0.1891,-0.1931,-0.1991,-0.2015,-0.2063,-0.204,-0.2071,-0.2096,-0.2097,-0.2121,-0.2093,-0.2078,-0.2077,-0.1928,-0.1981,-0.2103,-0.2127,-0.2128,-0.213,-0.213,0,-0.1585,-0.1641,-0.1705,-0.1788,-0.1805,-0.1842,-0.1915,-0.1958,-0.2032,-0.207,-0.2119,-0.2138,-0.2191,-0.2165,-0.2197,-0.2183,-0.2174,-0.2166,-0.2167,-0.1989,-0.1932,-0.2046,-0.2143,-0.2142,-0.2141,-0.214,-0.2139,0,-0.1536,-0.1634,-0.1694,-0.1716,-0.1811,-0.1857,-0.1909,-0.1983,-0.2022,-0.2124,-0.2161,-0.2222,-0.2254,-0.2265,-0.2244,-0.2237,-0.2262,-0.2247,-0.2094,-0.2082,-0.2176,-0.2166,-0.227,-0.2269,-0.2269,-0.2269,-0.2269,0,-0.1504,-0.1549,-0.1687,-0.1709,-0.1779,-0.1857,-0.1927,-0.1989,-0.2082,-0.2113,-0.2201,-0.2223,-0.2282,-0.2292,-0.2277,-0.2193,-0.2286,-0.2105,-0.2079,-0.2215,-0.2209,-0.2181,-0.2171,-0.227,-0.227,-0.227,-0.227,0,-0.1409,-0.1508,-0.1572,-0.1705,-0.1749,-0.1793,-0.1908,-0.1945,-0.2062,-0.2108,-0.2141,-0.2234,-0.224,-0.2264,-0.2279,-0.2204,-0.2163,-0.211,-0.2253,-0.2234,-0.1967,-0.1962,-0.1954,-0.1948,-0.1944,-0.194,-0.1937,0,-0.1365,-0.1394,-0.1538,-0.157,-0.1631,-0.1719,-0.176,-0.1901,-0.1929,-0.2073,-0.2069,-0.2142,-0.2173,-0.2077,-0.2122,-0.2084,-0.205,-0.2028,-0.1999,-0.196,-0.1936,-0.1938,-0.1938,-0.193,-0.1929,-0.1927,-0.1926,0,-0.126,-0.1325,-0.1377,-0.1454,-0.1514,-0.157,-0.1652,-0.1669,-0.1809,-0.193,-0.1946,-0.1961,-0.1964,-0.1969,-0.1947,-0.1917,-0.2048,-0.1981,-0.199,-0.1963,-0.1931,-0.1912,-0.1918,-0.1911,-0.1913,-0.1914,-0.1915,0,-0.117,-0.1182,-0.1265,-0.1311,-0.138,-0.1405,-0.1474,-0.1521,-0.1584,-0.1754,-0.1746,-0.1837,-0.1933,-0.1879,-0.1858,-0.1818,-0.1791,-0.1739,-0.176,-0.1778,-0.1705,-0.1638,-0.1507,0,0,0,0,0,-0.1079,-0.1085,-0.1116,-0.1174,-0.1231,-0.1278,-0.1384,-0.1459,-0.1602,-0.1559,-0.1657,-0.1654,-0.1652,-0.1704,-0.1621,-0.1762,-0.1787,-0.166,-0.1737,-0.1824,-0.1842,-0.177,0,0,0,0,0,0,-0.1021,-0.1051,-0.1071,-0.1044,-0.105,-0.111,-0.1173,-0.1276,-0.1274,-0.1423,-0.1427,-0.1541,-0.1555,-0.1661,-0.1581,-0.1592,-0.1605,-0.1719,-0.1714,-0.1814,-0.183,-0.1844,-0.1777,0,0,0,0,0]},{"header":{"parameterUnit":"m.s-1","parameterCategory":2,"la1":30.2991,"la2":30.254,"lo1":-89.0895,"lo2":-89.0444,"dy":0.0017,"dx":0.0017,"nx":28,"ny":28,"refTime":"2024-05-29T21:00:00:Z","depth":"4","parameterNumber":3,"parameterNumberName":"V-component_of_CURRENTS"},"data":[0,0,0,0,0,0,0,0,0,0,0,0,0,0,0,0,0,0,0,0,0,0,0,0,0,0,0,0,0,0,0,0,0,0,0,0,0,0,0,0,0,0,0,0,0,0,0,0,0,0,0,0,0,0,0,0,0,0,-0.0073,-0.0073,0,-0.0061,-0.006,-0.006,-0.0032,-0.0032,-0.0031,-0.0031,0.0037,0.0039,0.004,0,0,0,0,0,0,0,0,0,0,0,0,0,-0.0044,-0.0045,-0.0073,-0.0073,-0.0073,-0.0061,-0.006,-0.006,-0.0032,-0.0032,-0.0031,-0.0031,0.0037,0.0038,0.004,0,0,0,0,0,0,0,0,0,0,0,0,0,-0.0044,-0.0045,-0.0073,-0.006,-0.0059,-0.0061,-0.006,-0.006,-0.0032,-0.0032,-0.0031,-0.0031,0.0036,0.0038,0.0041,0.0046,0,0,0.0048,0.0049,0,0,0,0,0,0,0,0,-0.0044,-0.0045,-0.0062,-0.0061,-0.006,-0.005,-0.0025,-0.0023,-0.0032,-0.0039,-0.0031,-0.0031,0.0011,0.0015,0.002,0.0049,0.0052,0.0048,0.0049,0.005,0.0051,0,0,0,0,0,0,0,-0.0044,-0.0045,-0.0065,-0.0062,-0.0061,-0.0045,-0.0045,-0.0024,-0.0013,-0.0039,-0.0037,-0.0041,0.0012,0.0018,0.0022,0.0053,0.0048,0.005,0.0051,0.0052,0.0099,0.0099,0,0,0,0,0,0,-0.0054,-0.0045,-0.0065,-0.0065,-0.0054,-0.0047,-0.0046,-0.0051,-0.0015,-0.001,-0.0041,-0.004,0.0014,0.0019,0.0025,0.0039,0.005,0.0052,0.0054,0.0099,0.0099,0.0099,0,0,0,0,0,0,-0.0053,-0.0056,-0.0066,-0.0057,-0.0057,-0.0048,-0.0054,-0.0051,-0.0046,-0.0018,-0.0011,-0.004,0.0014,0.0021,0.0036,0.0041,0.0053,0.0056,0.0099,0.0099,0.0099,0.0063,0,0,0,0,0,0,-0.0053,-0.0056,-0.0059,-0.0058,-0.0059,-0.0073,-0.0055,-0.0051,-0.0051,-0.0048,-0.0015,-0.0008,0.0015,0.0032,0.0038,0.0045,0.0057,0.01,0.0099,0.0099,0.0065,0.0062,0.0059,0,0,0,0,0,-0.0052,-0.0066,-0.0059,-0.0061,-0.0065,-0.0074,-0.0073,-0.0062,-0.0051,-0.0054,-0.0033,-0.0009,0.0035,0.0034,0.0041,0.0048,0.01,0.0099,0.0099,0.0066,0.0062,0.0059,0,0,0,0,0,0,-0.0063,-0.0065,-0.0057,-0.0073,-0.0074,-0.0071,-0.0078,-0.0066,-0.0052,-0.0048,-0.0015,-0.0007,0.0007,0.003,0.0027,0.0061,0.0073,0.0074,0.0046,0.0043,0.004,0.0033,0.0059,0,0,0,0,0,-0.0066,-0.0073,-0.0074,-0.0087,-0.0091,-0.0083,-0.0084,-0.0076,-0.0067,-0.006,-0.0037,-0.0011,0.0011,0.0028,0.0045,0.0064,0.0106,0.0075,0.0072,0.007,0.0068,0.0144,0.0148,0.0098,0.0098,0.0098,0,0,-0.0076,-0.0077,-0.0083,-0.0089,-0.009,-0.0104,-0.0082,-0.0092,-0.0094,-0.0055,-0.005,-0.0024,0.0011,0.0027,0.0037,0.005,0.0104,0.0069,0.0067,0.0067,0.0144,0.0149,0.0154,0.0098,0.0098,0.0098,0,0,-0.0113,-0.0103,-0.0126,-0.0126,-0.0131,-0.0123,-0.0127,-0.0124,-0.0112,-0.0107,-0.0077,-0.0046,-0.0022,0.0013,0.0033,0.0029,0.0081,0.0034,0.0025,0.0098,0.0103,0.0108,0.016,0.0171,0.0041,0.0041,0.0041,0,-0.0127,-0.0151,-0.0135,-0.0156,-0.016,-0.0135,-0.0159,-0.0146,-0.0133,-0.0119,-0.0113,-0.0052,-0.0025,0.0017,0.0012,0.0025,0.0067,0.0033,0.0096,0.0102,0.0108,0.016,0.0172,0.0039,0.0039,0.004,0.004,0,-0.0182,-0.0194,-0.0211,-0.0223,-0.0222,-0.0239,-0.022,-0.021,-0.0191,-0.0168,-0.013,-0.0084,-0.0043,-0.0027,-0.0012,0.0043,0.0058,0.0078,0.0105,0.0111,0.0165,0.0178,0.0037,0.0037,0.0038,0.0038,0,0,-0.023,-0.0247,-0.0252,-0.0265,-0.0256,-0.0267,-0.0259,-0.0245,-0.0233,-0.0196,-0.0169,-0.0121,-0.0082,-0.0057,-0.0015,0.0049,0.0119,0.0074,0.0079,0.0127,0.027,0.024,0.0251,0.0154,0.0156,0.0158,0.029,0,-0.028,-0.0333,-0.0319,-0.0356,-0.0381,-0.0342,-0.0336,-0.0309,-0.0273,-0.0237,-0.016,-0.0127,-0.0095,-0.0071,-0.0001,0.0087,0.0152,0.0081,0.0256,0.0261,0.0235,0.0265,0.0165,0.0299,0.0302,0.0305,0.0306,0,-0.034,-0.0363,-0.0416,-0.042,-0.0426,-0.0437,-0.041,-0.0401,-0.033,-0.0297,-0.0228,-0.0169,-0.0076,-0.0051,0.0123,0.0076,0.0163,0.0238,0.0246,0.0239,0.0255,0.0295,0.033,0.0328,0.0326,0.0325,0.0323,0,-0.0392,-0.0427,-0.047,-0.0475,-0.0477,-0.0483,-0.0476,-0.0423,-0.0408,-0.0331,-0.0302,-0.018,-0.0118,0.0017,0.0159,0.0148,0.0353,0.0364,0.0423,0.0422,0.0426,0.0419,0.0491,0.0491,0.049,0.049,0.0489,0,-0.0445,-0.0479,-0.0502,-0.0527,-0.0565,-0.054,-0.0554,-0.0523,-0.0466,-0.044,-0.0339,-0.0281,-0.0097,0.0038,0.0166,0.0331,0.0367,0.0427,0.046,0.0405,0.0394,0.0435,0.0426,0.0495,0.0494,0.0493,0.0492,0,-0.0492,-0.0511,-0.0565,-0.0587,-0.0597,-0.0624,-0.0621,-0.0616,-0.0559,-0.0516,-0.0493,-0.0342,-0.0168,0.0015,0.0244,0.0331,0.0496,0.0544,0.0464,0.0489,0.0513,0.0502,0.0628,0.0629,0.0629,0.0629,0.0629,0,-0.0517,-0.0554,-0.0618,-0.0652,-0.0668,-0.0699,-0.0712,-0.0673,-0.0654,-0.0549,-0.0521,-0.0357,-0.0242,0.0064,0.0245,0.0497,0.0521,0.0599,0.0561,0.0512,0.0531,0.0519,0.0508,0.0629,0.0629,0.0629,0.0629,0,-0.0555,-0.0587,-0.0629,-0.0707,-0.0747,-0.0782,-0.079,-0.0783,-0.0716,-0.0671,-0.0529,-0.0367,-0.0171,0.0059,0.0252,0.0428,0.0546,0.0601,0.0602,0.0567,0.0514,0.0531,0.0519,0.063,0.063,0.063,0.063,0,-0.0575,-0.0617,-0.068,-0.0741,-0.0802,-0.0834,-0.084,-0.0792,-0.0761,-0.0631,-0.0586,-0.0369,-0.0231,0.0024,0.0205,0.0373,0.0407,0.0446,0.0455,0.0457,0.0357,0.0262,0.0337,0,0,0,0,0,-0.0581,-0.0631,-0.0701,-0.0771,-0.0834,-0.0862,-0.0869,-0.0854,-0.0793,-0.0701,-0.0636,-0.045,-0.0167,-0.0037,0.0127,0.0188,0.0418,0.0381,0.0463,0.0632,0.0632,0.054,0,0,0,0,0,0,-0.0588,-0.0658,-0.0699,-0.0775,-0.0826,-0.0882,-0.089,-0.0853,-0.0782,-0.07,-0.0543,-0.0436,-0.0158,-0.0263,0.0121,0.0174,0.0242,0.0525,0.0528,0.0633,0.0632,0.0632,0.0537,0,0,0,0,0]}]]